Location: Izdebno
(52.6670°N, 16.2170°E)
Time: 10:20:27
(UTC+02:00)

A-11 Canister half - Pass Details

Date: 01 March 2024
Orbit: 1513 x 1686 km, 47.2° (Epoch: 24 April)

Event Time Altitude Azimuth Distance (km) Brightness Sun altitude
Exits shadow 03:48:45 45° 245° (WSW) 2,163 9.2 -26.4°
Maximum altitude 03:52:06 65° 185° (S) 1,796 9.1 -26.0°
Drops below altitude 10° 04:01:47 10° 107° (ESE) 3,840 11.7 -24.6°
Sets 04:04:52 0° 104° (ESE) 4,803 12.4 -24.2°
